Regional Weather Roundup
Issued by NWS

Home | Current Version | Previous Version | Graphics & Text | Print | Product List | Glossary Off
Versions: 1 2 3 4 5 6 7 8 9 10 11 12 13 14 15 16 17 18 19 20 21 22 23 24 25 26 27 28 29 30 31 32 33 34 35 36 37 38 39 40 41 42 43 44 45 46 47 48 49 50

000
ASUS43 KDMX 281408
RWRIA

WEATHER ROUNDUP FOR IOWA
NATIONAL WEATHER SERVICE DES MOINES IA
900 AM CDT THU JUL 28 2016

NOTE: "FAIR" INDICATES FEW OR NO CLOUDS BELOW 12,000 FEET WITH NO
SIGNIFICANT WEATHER AND/OR OBSTRUCTIONS TO VISIBILITY.

* - THESE STATIONS ARE NOT NWS STATIONS...THUS NOT UNDER NWS
QUALITY CONTROL.  THEY ALSO DO NOT REPORT WEATHER SUCH
AS PRECIPITATION OR FOG.

IAZ001>003-012>014-020>022-031>034-043>046-281500-
   NORTHWEST IOWA

CITY           SKY/WX    TMP DP  RH WIND       PRES   REMARKS
CARROLL *      SUNNY     72  66  83 NW6       30.03R
CHEROKEE *     PTSUNNY   68  64  89 NW5       30.08R
DENISON *      MOSUNNY   72  68  88 CALM      30.04R
LE MARS *      SUNNY     70  61  73 N7        30.08R
SHELDON *      PTSUNNY   64  61  88 CALM      30.06R
SIOUX CITY     SUNNY     72  63  73 NW6       30.07R
SPENCER        CLOUDY    65  62  90 N9        30.04S
STORM LAKE *   SUNNY     68  64  88 NW6       30.05S
$$

IAZ055>058-069>071-079>083-090>094-281500-
   SOUTHWEST IOWA

CITY           SKY/WX    TMP DP  RH WIND       PRES   REMARKS
ATLANTIC *     SUNNY     72  68  88 N8        30.03S
CLARINDA *       N/A     73  70  88 MISG      30.03S
COUNCIL BLFS * SUNNY     73  68  83 NE10      30.03F
CRESTON *      SUNNY     72  66  83 N8        30.03S
HARLAN  *      SUNNY     70  68  94 VRB5      30.07S
LAMONI         SUNNY     73  69  87 N13       29.99S
RED OAK *      SUNNY     73  68  83 NE7       30.02S
SHENANDOAH *   PTSUNNY   73  72  94 NE9       30.02F
$$

IAZ047>049-059>061-072>074-084-281500-
   CENTRAL IOWA

CITY           SKY/WX    TMP DP  RH WIND       PRES   REMARKS
AMES           CLOUDY    67  66  97 NW12      30.00R
ANKENY *         N/A    N/A N/A N/A MISG        N/A
BOONE *        CLOUDY    66  64  94 NW9       30.00R
CHARITON *       N/A    N/A N/A N/A MISG        N/A
DES MOINES     MOSUNNY   75  67  76 NW10      29.98R
GRINNELL*      MOSUNNY   70  66  85 N9        29.98R
KNOXVILLE *    SUNNY     72  66  83 NW7       29.96S HAZE
MARSHALLTOWN   CLOUDY    67  65  93 N13       29.98R
NEWTON *       MOSUNNY   72  68  88 NW9       29.97S
PELLA *        SUNNY     73  66  78 N5        29.98S
PERRY *          N/A     71  68  91 NW8       30.02R
$$

IAZ004>006-015-016-023>025-035-036-281500-
   NORTH CENTRAL IOWA

CITY           SKY/WX    TMP DP  RH WIND       PRES   REMARKS
ALGONA *       CLOUDY    64  64 100 N7        30.03S
ESTHERVILLE    CLOUDY    64  62  93 N9        30.04R
FORT DODGE *   CLOUDY    66  63  88 NW5       30.03R
MASON CITY     CLOUDY    68  65  90 N9        30.01S
FOREST CITY *  CLOUDY    68  64  88 NW7       30.01S
IOWA FALLS *   CLOUDY    68  64  86 NW10      30.01S
$$

IAZ007>011-017>019-026>030-037>042-050>054-066-281500-
   NORTHEAST IOWA

CITY           SKY/WX    TMP DP  RH WIND       PRES   REMARKS
CEDAR RAPIDS   PTSUNNY   71  68  90 NW13      29.93R
CHARLES CITY * CLOUDY    68  68 100 NW8       29.97S
CLINTON *      CLOUDY    73  72  96 W5        29.91F FOG
DECORAH *      CLOUDY    68  68 100 N10       29.94R
DUBUQUE        PTSUNNY   76  67  73 NE3       29.92S
MONTICELLO *   CLOUDY    68  68 100 NW5       29.93R FOG
OELWEIN *      CLOUDY    70  68  94 NW8       29.95R
WATERLOO       CLOUDY    69  65  86 NW9       29.94R
$$

IAZ064-065-067-068-078-281500-
   EAST CENTRAL IOWA

CITY           SKY/WX    TMP DP  RH WIND       PRES   REMARKS
DAVENPORT      SUNNY     76  70  82 CALM      29.92F
IOWA CITY      MOSUNNY   74  68  81 VRB5      29.93S
MUSCATINE *    SUNNY     77  70  78 NW5       29.91F
QUAD CITIES    SUNNY     80  69  69 CALM      29.90F HX  83
$$

IAZ062-063-075>077-085>089-095>099-281500-
   SOUTHEAST IOWA

CITY           SKY/WX    TMP DP  RH WIND       PRES   REMARKS
BURLINGTON     SUNNY     77  70  79 N9        29.92R
KEOKUK *       SUNNY     79  72  78 NW7       29.92S HX  82
OSKALOOSA *      N/A     72  68  87 NW7       29.96R
CENTERVILLE *    N/A     75  72  88 NW8       29.98R
OTTUMWA        SUNNY     73  68  84 NW10      29.93F
WASHINGTON *   SUNNY     73  70  88 NW7       29.94R
$$

ABBREVIATIONS USED IN REMARKS
   TC - TEMPERATURES IN CELSIUS
  WCI - WIND CHILL INDEX
   HX - HEAT INDEX
  VSB - VISIBILITY
$$





USA.gov is the U.S. government's official web portal to all federal, state and local government web resources and services.